Location: Jackson Park
(37.2862°N, 79.9123°W)
Time: 09:25:58
(UTC+00:00)

Vanguard 1 Rocket - All Passes

Search period start: 12 May 2026 00:00
Search period end: 22 May 2026 00:00
Orbit: 655 x 4212 km, 34.3° (Epoch: 12 May)

Date Brightness Start Highest point End Pass type
(mag) Time Alt. Az. Time Alt. Az. Time Alt. Az.
12 May - 00:23:35 10° W 00:40:07 78° S 01:06:19 10° ESE visible
12 May - 02:51:23 10° W 03:12:01 53° SSW 03:36:10 10° SE visible
12 May - 05:25:09 10° W 05:41:47 22° SW 05:57:41 10° S visible
12 May - 18:25:32 10° S 18:31:07 21° SE 18:39:27 10° E daylight
12 May - 20:46:21 10° SW 20:55:41 64° SSE 21:14:14 10° E daylight
12 May - 23:10:50 10° W 23:24:31 81° S 23:49:14 10° E daylight
13 May - 01:37:19 10° W 01:55:59 65° SSW 02:21:43 10° SE visible
13 May - 04:07:18 10° W 04:26:55 35° SW 04:47:30 10° SSE visible
13 May - 19:35:16 10° SW 19:42:50 46° SE 19:57:02 10° E daylight
13 May - 21:58:34 10° WSW 22:09:42 79° S 22:31:37 10° E daylight
14 May - 00:24:03 10° W 00:40:04 74° SSW 01:05:54 10° ESE visible
14 May - 02:51:52 10° W 03:11:28 47° SW 03:35:02 10° SSE visible
14 May - 05:27:44 10° W 05:41:00 17° SW 05:54:07 10° SSW visible
14 May - 18:25:04 10° S 18:30:52 26° SE 18:40:06 10° E daylight
14 May - 20:46:46 10° WSW 20:55:49 69° SSE 21:14:04 10° E daylight
14 May - 23:11:21 10° W 23:24:38 79° S 23:48:57 10° ESE daylight
15 May - 01:37:45 10° W 01:55:41 58° SSW 02:20:54 10° SE visible
15 May - 04:08:24 10° W 04:26:13 28° SW 04:45:24 10° S visible
15 May - 17:17:44 10° SE 17:19:28 11° SE 17:21:24 10° ESE daylight
15 May - 19:35:31 10° SW 19:42:51 52° SSE 19:57:01 10° E daylight
15 May - 21:59:06 10° W 22:09:56 80° S 22:31:24 10° E daylight
16 May - 00:24:31 10° W 00:39:59 68° SSW 01:05:19 10° ESE visible
16 May - 02:52:31 10° W 03:10:56 40° SW 03:33:33 10° SSE visible
16 May - 05:32:55 10° WSW 05:40:23 12° SW 05:47:53 10° SW visible
16 May - 18:24:56 10° SSW 18:30:45 32° SE 18:40:30 10° E daylight
16 May - 20:47:17 10° WSW 20:56:03 74° SSE 21:13:54 10° E daylight
16 May - 23:11:53 10° W 23:24:45 76° S 23:48:34 10° ESE daylight
17 May - 01:38:16 10° W 01:55:23 52° SSW 02:19:48 10° SE visible
17 May - 04:10:05 10° W 04:25:37 23° SW 04:42:36 10° S visible
17 May - 17:15:48 10° SSE 17:19:15 15° SE 17:23:41 10° E daylight
17 May - 19:35:53 10° SW 19:43:01 59° SSE 19:56:59 10° E daylight
17 May - 21:59:41 10° W 22:10:11 79° S 22:31:10 10° E daylight
18 May - 00:25:02 10° W 00:39:55 62° SSW 01:04:32 10° SE visible
18 May - 02:53:26 10° W 03:10:28 33° SW 03:31:39 10° SSE visible
18 May - 18:25:01 10° SSW 18:30:46 39° SE 18:40:46 10° E daylight
18 May - 20:47:51 10° WSW 20:56:22 77° S 21:13:46 10° E daylight
18 May - 23:12:26 10° W 23:24:53 71° SSW 23:48:04 10° ESE daylight
19 May - 01:38:56 10° W 01:55:07 45° SSW 02:18:24 10° SSE visible
19 May - 04:12:51 10° WSW 04:25:09 17° SW 04:38:36 10° SSW visible
19 May - 17:15:05 10° S 17:19:09 20° SE 17:24:48 10° E daylight
19 May - 19:36:21 10° WSW 19:43:17 65° SSE 19:56:57 10° E daylight
19 May - 22:00:16 10° W 22:10:28 77° S 22:30:52 10° ESE daylight
20 May - 00:25:36 10° W 00:39:51 55° SSW 01:03:32 10° SE visible
20 May - 02:54:44 10° W 03:10:06 27° SW 03:29:11 10° S visible
20 May - 18:25:16 10° SW 18:30:56 46° SSE 18:40:58 10° E daylight
20 May - 20:48:27 10° W 20:56:43 78° S 21:13:38 10° E daylight
20 May - 23:12:59 10° W 23:25:00 65° SSW 23:47:24 10° ESE daylight
21 May - 01:39:46 10° W 01:54:54 38° SW 02:16:38 10° SSE visible
21 May - 04:18:29 10° WSW 04:24:52 12° SW 04:31:36 10° SSW visible
21 May - 17:14:50 10° SSW 17:19:11 25° SE 17:25:32 10° E daylight
21 May - 19:36:54 10° WSW 19:43:39 70° SSE 19:56:57 10° E daylight
21 May - 22:00:52 10° W 22:10:44 73° S 22:30:30 10° ESE daylight
